Location: Newark
(11.2914°S, 14.4718°E)
Time: 08:28:29
(UTC+00:00)

Vanguard 2 Rocket - All Passes

Search period start: 22 September 2019 00:00
Search period end: 02 October 2019 00:00
Orbit: 554 x 3326 km, 32.9° (Epoch: 21 September)

Date Brightness Start Highest point End Pass type
(mag) Time Alt. Az. Time Alt. Az. Time Alt. Az.
22 Sep - 00:04:49 10° N 00:10:18 22° NE 00:18:18 10° E visible
22 Sep - 02:14:50 10° NW 02:23:53 90° NE 02:40:23 10° ESE visible
22 Sep - 04:29:34 10° W 04:42:01 46° SSW 05:00:30 10° SE visible
22 Sep - 06:48:13 10° WSW 07:04:18 36° S 07:22:01 10° ESE daylight
22 Sep - 09:07:54 10° SW 09:27:17 47° SSE 09:42:46 10° E daylight
22 Sep - 11:27:21 10° WSW 11:46:54 87° SE 11:58:51 10° ENE daylight
22 Sep - 13:49:24 10° WSW 14:02:00 32° NW 14:10:04 10° NNE daylight
23 Sep - 01:15:57 10° NW 01:23:32 64° NE 01:37:23 10° ESE visible
23 Sep - 03:29:08 10° W 03:39:49 53° SSW 03:57:27 10° SE visible
23 Sep - 05:46:23 10° WSW 06:00:40 36° S 06:18:41 10° ESE daylight
23 Sep - 08:05:36 10° SW 08:23:53 42° SSE 08:40:46 10° E daylight
23 Sep - 10:24:37 10° SW 10:45:00 70° SSE 10:58:51 10° ENE daylight
23 Sep - 12:45:12 10° WSW 13:01:47 50° NW 13:11:50 10° NNE daylight
24 Sep - 00:17:39 10° NNW 00:23:51 38° NE 00:34:14 10° ESE visible
24 Sep - 02:29:18 10° WNW 02:38:20 65° SSW 02:54:32 10° SE visible
24 Sep - 04:45:07 10° WSW 04:57:31 38° S 05:15:10 10° SE daylight
24 Sep - 07:03:37 10° SW 07:20:13 38° S 07:37:56 10° ESE daylight
24 Sep - 09:22:15 10° SW 09:42:25 58° SSE 09:58:06 10° E daylight
24 Sep - 11:41:42 10° WSW 12:00:57 71° NW 12:12:54 10° NE daylight
24 Sep - 14:06:19 10° W 14:15:35 20° NW 14:22:22 10° N daylight
24 Sep - 23:20:16 10° N 23:24:35 19° NE 23:30:34 10° E visible
25 Sep - 01:30:01 10° WNW 01:37:37 86° SSW 01:51:47 10° ESE visible
25 Sep - 03:44:24 10° W 03:55:01 41° SSW 04:11:45 10° SE visible
25 Sep - 06:02:00 10° WSW 06:16:34 35° S 06:34:22 10° ESE daylight
25 Sep - 08:20:13 10° SW 08:39:19 49° SSE 08:56:30 10° E daylight
25 Sep - 10:38:47 10° WSW 10:59:22 89° SE 11:13:18 10° NE daylight
25 Sep - 13:00:45 10° WSW 13:15:21 34° NW 13:24:59 10° NNE daylight
26 Sep - 00:31:14 10° NW 00:37:36 64° NE 00:49:10 10° ESE visible
26 Sep - 02:44:14 10° W 02:53:14 48° SSW 03:08:38 10° SE visible
26 Sep - 05:00:46 10° WSW 05:13:16 34° S 05:30:25 10° ESE daylight
26 Sep - 07:18:34 10° SW 07:35:53 42° SSE 07:53:56 10° E daylight
26 Sep - 09:36:24 10° SW 09:57:06 73° SSE 10:12:58 10° ENE daylight
26 Sep - 11:56:30 10° WSW 12:14:41 51° NW 12:26:31 10° NNE daylight
26 Sep - 14:27:10 10° WNW 14:29:29 11° NW 14:31:37 10° NW daylight
26 Sep - 23:33:01 10° NNW 23:38:11 36° NE 23:46:32 10° ESE visible
27 Sep - 01:44:35 10° WNW 01:52:09 59° SSW 02:05:53 10° SE visible
27 Sep - 03:59:57 10° WSW 04:10:33 34° S 04:26:28 10° SE visible
27 Sep - 06:17:14 10° SW 06:32:23 37° SSE 06:50:27 10° ESE daylight
27 Sep - 08:34:31 10° SW 08:54:18 60° SSE 09:11:49 10° ENE daylight
27 Sep - 10:53:10 10° WSW 11:13:22 70° NW 11:27:18 10° NE daylight
27 Sep - 13:17:36 10° W 13:29:01 22° NW 13:37:23 10° N daylight
27 Sep - 22:35:47 10° N 22:39:06 17° NE 22:43:22 10° E night (unlit)
28 Sep - 00:45:23 10° WNW 00:51:45 80° SSW 01:03:31 10° SE visible
28 Sep - 02:59:34 10° WSW 03:08:29 37° SSW 03:22:54 10° SE visible
28 Sep - 05:16:14 10° SW 05:29:06 33° S 05:46:14 10° ESE daylight
28 Sep - 07:33:04 10° SW 07:51:09 50° SSE 08:09:42 10° E daylight
28 Sep - 09:50:35 10° WSW 10:11:24 89° NW 10:27:21 10° NE daylight
28 Sep - 12:12:03 10° WSW 12:28:18 36° NW 12:39:37 10° NNE daylight
28 Sep - 23:46:38 10° NW 23:52:01 66° NE 00:01:25 10° ESE visible
29 Sep - 01:59:36 10° W 02:07:06 41° SSW 02:19:56 10° SE visible
29 Sep - 04:15:33 10° WSW 04:26:15 31° S 04:41:46 10° ESE visible
29 Sep - 06:32:01 10° SW 06:47:54 42° SSE 07:06:33 10° E daylight
29 Sep - 08:48:40 10° SW 09:08:52 75° SSE 09:26:38 10° ENE daylight
29 Sep - 11:07:59 10° WSW 11:27:07 52° NW 11:40:49 10° NNE daylight
29 Sep - 13:37:12 10° WNW 13:43:02 13° NW 13:48:01 10° NNW daylight
29 Sep - 22:48:25 10° NNW 22:52:47 33° NE 22:59:23 10° ESE night (unlit)
30 Sep - 01:00:03 10° W 01:06:22 51° SSW 01:17:33 10° SE visible
30 Sep - 03:15:09 10° WSW 03:23:59 30° S 03:37:36 10° SE visible
30 Sep - 05:31:19 10° SW 05:44:47 36° SSE 06:02:27 10° ESE daylight
30 Sep - 07:47:17 10° SW 08:06:00 62° SSE 08:25:01 10° ENE daylight
30 Sep - 10:04:58 10° WSW 10:25:21 69° NW 10:41:16 10° NE daylight
30 Sep - 12:28:52 10° W 12:42:05 24° NW 12:52:04 10° N daylight
30 Sep - 21:51:15 10° N 21:53:47 14° NE 21:56:45 10° ENE night (unlit)
01 Oct - 00:00:52 10° WNW 00:06:15 72° SSW 00:15:43 10° SE visible
01 Oct - 02:15:01 10° WSW 02:22:22 31° S 02:34:07 10° SE visible
01 Oct - 04:30:53 10° SW 04:41:58 31° S 04:57:43 10° ESE daylight
01 Oct - 06:46:25 10° SW 07:03:01 50° SSE 07:22:22 10° E daylight
01 Oct - 09:02:51 10° WSW 09:23:05 87° NW 09:40:57 10° NE daylight
01 Oct - 11:23:34 10° W 11:40:50 37° NW 11:53:53 10° NNE daylight
01 Oct - 23:02:04 10° NW 23:06:41 68° NE 23:14:14 10° ESE night (unlit)
